Regional Weather Roundup
Issued by NWS

Home | Current Version | Previous Version | Graphics & Text | Print | Product List | Glossary On
Versions: 1 2 3 4 5 6 7 8 9 10 11 12 13 14 15 16 17 18 19 20 21 22 23 24 25 26 27 28 29 30 31 32 33 34 35 36 37 38 39 40 41 42 43 44 45 46 47 48 49 50
944
ASUS43 KOAX 261210
RWRNE

WEATHER ROUNDUP FOR NEBRASKA
NATIONAL WEATHER SERVICE OMAHA NE
700 AM CDT THU APR 26 2018

NOTES: SATELLITE DATA IS BEING USED TO AUGMENT CLOUD COVER ABOVE
       12000 FEET.
       "FAIR" INDICATES FEW OR NO CLOUDS BELOW 12,000 FEET WITH NO
       SIGNIFICANT WEATHER AND/OR OBSTRUCTIONS TO VISIBILITY.


NEZ001>004-019>022-054>056-261300-
NEBRASKA PANHANDLE

CITY           SKY/WX    TMP DP  RH WIND       PRES   REMARKS
SCOTTSBLUFF    CLOUDY    45  33  63 NW12      30.16R
6HR MIN TEMP:  45; 6HR MAX TEMP:  56;

ALLIANCE       MOCLDY    43  33  68 N21       30.09R
6HR MIN TEMP:  36; 6HR MAX TEMP:  48;

CHADRON        PTCLDY    46  32  58 N15       30.16R
6HR MIN TEMP:  44; 6HR MAX TEMP:  55;

GORDON         FAIR      42  33  71 NW14      30.10R
6HR MIN TEMP:  42; 6HR MAX TEMP:  53;

KIMBALL        MOCLDY    45  29  53 NW25G33   30.15R
SIDNEY         PTCLDY    44  31  60 NW22G29   30.11R
6HR MIN TEMP:  40; 6HR MAX TEMP:  52;

$$

NEZ057>060-069>072-079>082-261300-
SOUTHWEST NEBRASKA

CITY           SKY/WX    TMP DP  RH WIND       PRES   REMARKS
NORTH PLATTE   CLOUDY    40  35  83 N7        29.96R
6HR MIN TEMP:  39; 6HR MAX TEMP:  47;

IMPERIAL       CLOUDY    45  36  70 NW18      29.98R
6HR MIN TEMP:  39; 6HR MAX TEMP:  45;

LEXINGTON      MOCLDY    37  34  89 NE5       29.92R WCI  33
MCCOOK         CLOUDY    38  34  85 W7        29.93R WCI  33
6HR MIN TEMP:  36; 6HR MAX TEMP:  45;

OGALLALA       CLOUDY    52  33  48 N31G40    29.98R
$$

NEZ005>010-023>029-035>040-094-261300-
NORTH CENTRAL NEBRASKA

CITY           SKY/WX    TMP DP  RH WIND       PRES   REMARKS
VALENTINE      MOCLDY    47  35  63 N17G31    30.00R
6HR MIN TEMP:  44; 6HR MAX TEMP:  53;

AINSWORTH      CLOUDY    49  37  62 N24G32    29.96R
BROKEN BOW     MOCLDY    41  33  73 W5        29.94R
6HR MIN TEMP:  33; 6HR MAX TEMP:  43;

O`NEILL        PTCLDY    43  36  77 SW8       29.92R
ORD            PTCLDY    34  32  92 CALM      29.94R
6HR MIN TEMP:  32; 6HR MAX TEMP:  41;

THEDFORD       CLOUDY    51  35  55 N10G20    29.99R
$$

NEZ041-046>049-061>064-073>077-083>087-261300-
SOUTH CENTRAL NEBRASKA

CITY           SKY/WX    TMP DP  RH WIND       PRES   REMARKS
GRAND ISLAND   CLOUDY    41  36  82 SW8       29.94F
6HR MIN TEMP:  41; 6HR MAX TEMP:  44;

AURORA         PTCLDY    39  37  91 SW12      29.93F WCI  32
HASTINGS       CLOUDY    37  36  96 S9        29.93F WCI  30
6HR MIN TEMP:  37; 6HR MAX TEMP:  41;

HEBRON         PTCLDY    35  34  97 CALM      30.00S FOG
HOLDREGE       CLOUDY    38  35  90 S8        29.92F WCI  32
KEARNEY        CLOUDY    38  35  89 SW5       29.94F WCI  34
YORK             N/A     37  37 100 SW7       29.96F WCI  32
$$

NEZ011>018-030>034-042>045-261300-
NORTHEAST NEBRASKA

CITY           SKY/WX    TMP DP  RH WIND       PRES   REMARKS
NORFOLK        CLOUDY    42  36  79 SW8       29.93R
6HR MIN TEMP:  41; 6HR MAX TEMP:  44;

ALBION         CLOUDY    40  36  85 CALM      29.95R
BLAIR          CLOUDY    39  34  82 SW5       29.96S
COLUMBUS       CLOUDY    41  36  81 SW6       29.96F
FREMONT        CLOUDY    43  37  80 SW7       29.96F
TEKAMAH        CLOUDY    36  32  85 S10       29.96S WCI  28
6HR MIN TEMP:  32; 6HR MAX TEMP:  44;

WAYNE          CLOUDY    40  40  97 SW7       29.93R
$$

NEZ050>053-065>068-078-088>093-261300-
SOUTHEAST NEBRASKA

CITY           SKY/WX    TMP DP  RH WIND       PRES   REMARKS
LINCOLN        CLOUDY    36  33  89 CALM      30.00R
6HR MIN TEMP:  34; 6HR MAX TEMP:  45;

OMAHA EPPLEY   CLOUDY    40  35  83 SE7       29.97S
6HR MIN TEMP:  39; 6HR MAX TEMP:  48;

BEATRICE       CLOUDY    34  33  96 CALM      30.00S
FALLS CITY     CLOUDY    36  34  92 W5        30.00R WCI  32
6HR MIN TEMP:  34; 6HR MAX TEMP:  41;

NEBRASKA CITY  PTCLDY    40  38  94 W10       29.99R WCI  33
PLATTSMOUTH    MOCLDY    41  35  78 W5        29.97S
$$

NEZ044-045-051>053-067-261300-
OMAHA AREA

CITY           SKY/WX    TMP DP  RH WIND       PRES   REMARKS
OMAHA EPPLEY   CLOUDY    40  35  83 SE7       29.97S
6HR MIN TEMP:  39; 6HR MAX TEMP:  48;

BLAIR          CLOUDY    39  34  82 SW5       29.96S
FREMONT        CLOUDY    43  37  80 SW7       29.96F
MILLARD        MOCLDY    40  36  86 CALM      29.97S
OFFUTT AFB     CLOUDY    37  36  97 SW3       29.97R
PLATTSMOUTH    MOCLDY    41  35  78 W5        29.97S
WAHOO          FAIR      42  35  75 SW7       29.97S
$$




USA.gov is the U.S. government's official web portal to all federal, state and local government web resources and services.